STARLINK-11604, 63133

Orbit data source: Space-Track

STARLINK-11604, 63133 is a payload satellite owned by SpaceX/Seattle (US) in LEO that was launched on Mon, 03 Mar 2025 UTC via an FALCON 9 launch vehicle from the Air Force Eastern Test Range (AFETR). Payload-class satellites include a variety of spacecraft equipped with specific instruments for various scientific and technological missions. These include communications satellites like Starlink; space stations such as the ISS; scientific satellites like the Hubble; Earth observation satellites from companies like Planet Labs, Umbra, and HawkEye 360; GPS; miniature CubeSats for education and research; and military/defense satellites.

Loading next visibility...
Identifier
63133, 2025-043B
Orbit
LEO
Country
Flag of USUS
Related business
Manufacturer
SpaceX/Seattle
Mission
Operational Commercial Communications
Bus & Motor
STARLINK V2MD, Unknown motor
Mass
960 kg wet, ~910 kg dry
Launch date (UTC)
2025-03-03 (1 year ago)
Launch vehicle
FALCON 9
Launch site
Air Force Eastern Test Range (AFETR)
Object type
Payload
Rocket body
Debris
Shape & HBR
Box + 2 Pan, 18.1 m
Radar Cross Section
36.964 m², Large (>1 m²)

Expand to show TLE details & history
Last TLE update: 2 days ago

TLE from 2 days ago
0 STARLINK-11604
1 63133U 25043B   26173.51336046  .00176012  00000-0  13409-2 0  9993
2 63133  43.0015 339.2823 0002656 259.5628 100.4940 15.70935518 75832
Epoch: 2026-06-22T12:19Z
TLE epoch observation values (Epoch: 2026-06-22T12:19:14.343Z)
Latitude
-0.00006°
Longitude
-116.22572°
Altitude
356.32 km
Speed
7.697 km/s
True Right ascension
22h 37m 07s
True Declination
0° 00' 00"
Sunlit
Object was in full shadow at epoch
Visualization orbit readout
Latitude
Unknown
Longitude
Unknown
Altitude
Unknown
Speed
Unknown
Apparent Right ascension
Unknown
Apparent Declination
Unknown
Sunlit
N/A
Visualization observer readout
Local Sidereal Time
13:17:09
Azimuth
Unknown
Elevation
Unknown
Doppler factor
Unknown
Orbital elements
Apogee altitude
359.993 km
Perigee altitude
356.414 km
Semi-major axis
6,736.34 km
Eccentricity
0.00027
Inclination
43.0015°
RAAN
339.2823°
Arg. of periapsis
259.5628°
True anomaly
100.52392°
Mean anomaly
100.494°
Eccentric anomaly
100.50896°
Mean motion
3.92561 °/min
Orbital period
91.71 mins
BSTAR
0.0013409
Loading maneuver chart data...
Computing Atmospheric mass density...
Loading historical data...
Loading historical data...
Loading historical data...
Loading historical data...
Loading historical data...
Loading historical data...
Loading historical data...

Documentation

Showing up to 5 results
|